Content
SEND FEEDBACK

Daily
Averages
Monthly
Summary
Canada

MONTREAL, QUEBEC


Home > North America > Canada > Quebec
Elevation: 118 feet     Latitude: 45 28N     Longitude: 073 45W

WEATHER
 
SELECT A DAY
Number of Records: 202,601;   Date Range: 1/1/95 - 11/27/14
 
SHARE

PRINT THIS DATA

[ ← Previous Day ]
WEATHER ALMANAC - OCTOBER 15, 2013
[ Next Day → ]
[ °C ]   °F
Weather ElementAverageHighLow
Temperature56.1 °F60.8 °F (4:00 pm)51.8 °F (7:00 am)
Dewpoint51.1 °F54 °F (2:00 am)48 °F (8:00 am)
Humidity83.2 %100 % (1:00 am)68 % (2:00 pm)
Barometer30.22 in30.29 in (1:00 am)30.07 in (11:00 pm)
Wind Speed6.5 mph9.2 mph (6:00 pm)
Weather ElementAverage
Visibility12.1 mi
Wind DirectionNE (40 °)

Weather ElementTotal
Precipitation---
Heating Degree Days8.7 (Base 65)
Growing Degree Days6.3 (Base 50)
Averaged from 29 records on October 15, 2013
WEATHER CONDITIONS BREAKOUT
WIND DIRECTION BREAKOUT
WEATHER BY HOUR - OCTOBER 15, 2013
[ °C ]   °F
Local TimeTemperatureDewpointHumidityBarometerVisibilityWind DirectionWind SpeedGust SpeedPrecipitationEventsConditions
1:00 AM53.6 °F53.6 °F100 %30.29 in12.0 miNNE (30°)5.8 mphMostly Cloudy
2:00 AM55.0 °F54.0 °F94 %30.28 in7.0 miNNE (20°)6.9 mphOvercast
2:00 AM55.4 °F53.6 °F94 %30.28 in8.0 miNNE (20°)5.8 mphOvercast
3:00 AM55.4 °F53.6 °F94 %30.28 in3.0 miNE (40°)5.8 mphOvercast
4:00 AM55.4 °F53.6 °F94 %30.27 in4.0 miNNE (20°)6.9 mphOvercast
5:00 AM55.4 °F51.8 °F88 %30.28 in4.0 miNorth (10°)8.1 mphOvercast
6:00 AM53.6 °F50.0 °F88 %30.29 in6.0 miNNE (20°)8.1 mphOvercast
7:00 AM51.8 °F48.2 °F88 %30.28 in12.0 miNNE (30°)8.1 mphOvercast
7:41 AM51.8 °F48.2 °F88 %30.28 in15.0 miNNE (20°)8.1 mphOvercast
8:00 AM53.0 °F48.0 °F78 %30.29 in15.0 miNNE (20°)8.1 mphOvercast
8:00 AM53.6 °F48.2 °F82 %30.29 in15.0 miNNE (20°)8.1 mphOvercast
9:00 AM53.6 °F48.2 °F82 %30.29 in15.0 miNNE (30°)6.9 mphOvercast
10:00 AM53.6 °F50.0 °F88 %30.29 in15.0 miENE (60°)5.8 mphOvercast
11:00 AM55.4 °F50.0 °F82 %30.27 in12.0 miNNE (30°)5.8 mphOvercast
12:00 PM55.4 °F51.8 °F88 %30.26 in12.0 miNE (50°)5.8 mphOvercast
12:29 PM55.4 °F50.0 °F82 %30.25 in12.0 miEast (80°)4.6 mphOvercast
1:00 PM57.2 °F50.0 °F77 %30.23 in12.0 miNE (50°)3.5 mphOvercast
2:00 PM58.0 °F50.0 °F68 %30.20 in12.0 miESE (110°)4.6 mphOvercast
2:00 PM59.0 °F50.0 °F72 %30.20 in12.0 miSE (140°)4.6 mphOvercast
3:00 PM59.0 °F50.0 °F72 %30.19 in12.0 miVariable2.3 mphOvercast
4:00 PM60.8 °F50.0 °F68 %30.16 in15.0 miNE (40°)4.6 mphMostly Cloudy
5:00 PM60.8 °F51.8 °F72 %30.14 in15.0 miNNE (30°)8.1 mphOvercast
6:00 PM59.0 °F51.8 °F77 %30.13 in15.0 miNorth (10°)9.2 mphOvercast
7:00 PM57.2 °F51.8 °F82 %30.12 in15.0 miNNE (20°)9.2 mphMostly Cloudy
8:00 PM57.0 °F53.0 °F81 %30.12 in15.0 miNNE (20°)8.1 mphOvercast
8:00 PM57.2 °F51.8 °F82 %30.12 in15.0 miNNE (20°)9.2 mphOvercast
9:00 PM57.2 °F53.6 °F88 %30.10 in15.0 miNE (40°)8.1 mphMostly Cloudy
10:00 PM57.2 °F51.8 °F82 %30.09 in15.0 miENE (70°)4.6 mphMostly Cloudy
11:00 PM59.0 °F53.6 °F82 %30.07 in15.0 miESE (110°)3.5 mphMostly Cloudy
Hourly data recorded from CYUL, located miles away from Montreal, Quebec







STORIES FROM OUR PARTNERS